Location: Unspecified
(0.0000°N, 0.0000°E)
Time: 04:31:25
(UTC+00:00)

Tiros 1 - Pass Details

Date: 06 October 2020
Orbit: 630 x 663 km, 48.4° (Epoch: 28 October)

Event Time Altitude Azimuth Distance (km) Brightness Sun altitude
Rises 08:01:15 0° 206° (SSW) 2,914 10.3 33.1°
Reaches altitude 10° 08:03:42 10° 198° (SSW) 2,003 9.7 33.7°
Maximum altitude 08:08:00 40° 129° (SE) 934 9.4 34.8°
Drops below altitude 10° 08:12:19 10° 60° (ENE) 2,000 10.5 35.9°
Sets 08:14:44 0° 52° (NE) 2,908 11.1 36.5°
